Regional Weather Roundup
Issued by NWS Burlington, VT

Current Version | Previous Version | Text Only | Print | Product List | Glossary Off
Versions: 1 2 3 4 5 6 7 8 9 10 11 12 13 14 15 16 17 18 19 20 21 22 23 24 25 26 27 28 29 30 31 32 33 34 35 36 37 38 39 40 41 42 43 44 45 46 47 48 49 50

000
ASUS41 KBTV 052210
RWRBTV
VERMONT REGIONAL WEATHER ROUNDUP
NATIONAL WEATHER SERVICE BURLINGTON VT
500 PM EST FRI FEB 05 2016

NOTE: "FAIR" INDICATES FEW OR NO CLOUDS BELOW 12,000 FEET WITH NO
SIGNIFICANT WEATHER AND/OR OBSTRUCTIONS TO VISIBILITY.

* THESE REPORTS ARE NOT UNDER NWS QUALITY CONTROL AND/OR DO NOT
  REPORT WEATHER SUCH AS PRECIPITATION AND FOG.

VTZ001>019-052300-
_____VERMONT_____


CITY           SKY/WX    TMP DP  RH WIND       PRES   REMARKS
BURLINGTON     MOCLDY    28  12  51 N9        30.19R WCI  19
MONTPELIER     CLOUDY    22  12  65 NW10G18   30.14R WCI  11
MORRISVILLE      N/A     25  14  63 N9        30.17R WCI  15
ST. JOHNSBURY*   N/A     27  10  49 MISG      30.09R
LYNDONVILLE*   FAIR      22  11  61 W10G20    30.10R WCI  12
RUTLAND*       FAIR      27  10  50 NW14G22   30.13R WCI  15
SPRINGFIELD    FAIR      30  10  43 VRB7      30.09R WCI  23
HIGHGATE*      MOCLDY    25  15  65 N3        30.20R
NEWPORT*       FAIR      22  10  61 NW10G18   30.13R WCI  11
BENNINGTON     FAIR      30  17  58 NW8       30.11R WCI  22
SUTTON*          N/A     19 N/A N/A MISG        N/A

_____LAKE CHAMPLAIN_____


CITY           SKY/WX    TMP DP  RH WIND       PRES   REMARKS

$$

NYZ007-026>031-035-052-083-052300-
_____NORTHERN NEW YORK_____


CITY           SKY/WX    TMP DP  RH WIND       PRES   REMARKS
PLATTSBURGH    CLEAR     27  11  51 NW8       30.20R WCI  19
SARANAC LAKE   CLEAR     22   9  57 VRB3      30.12R
MASSENA        CLEAR     27  12  53 W12       30.26R WCI  17
OGDENSBURG*    CLEAR     28  14  54 W6        30.26R WCI  22
POTSDAM*       CLEAR     28  16  59 NW8       30.25R WCI  20
WATERTOWN      CLEAR     28  15  58 SW7       30.28R WCI  21
ALBANY         PTCLDY    37   7  28 NW22G31   30.15R WCI  26
GLENS FALLS    CLEAR     32  13  45 NE8G25    30.17R WCI  25

$$
NHZ002-005-011-052300-
_____NEW HAMPSHIRE_____


CITY           SKY/WX    TMP DP  RH WIND       PRES   REMARKS
LEBANON        MOCLDY    29  13  51 N18G26    30.09R WCI  16
MT WASHINGTON  BLWGSNOW   1   1 100 W59         N/A  VSB 0   WCI -31
PLYMOUTH       FAIR      29  14  52 NW10G24   30.04R WCI  20
WHITEFIELD     CLOUDY    25  10  53 NW14      30.06R WCI  13

$$

_____REGIONAL QUEBEC LOCATIONS_____


CITY           SKY/WX    TMP DP  RH WIND       PRES   REMARKS
MONTREAL       PTCLDY    28  12  50 W14G20    30.20R WCI  17
QUEBEC CITY    PTCLDY    21  14  73 W3        30.11F
SHERBROOKE     CLEAR     19  10  68 W10G17    30.12R WCI   8

_____REGIONAL ONTARIO LOCATIONS_____


CITY           SKY/WX    TMP DP  RH WIND       PRES   REMARKS
OTTAWA         PTCLDY    25  12  58 W9        30.24S WCI  15

______KEY______
VSB  - VISIBILITY IN MILES
WCI  - WIND CHILL INDEX
HX   - HEAT INDEX
$$
NNNN



USA.gov is the U.S. government's official web portal to all federal, state and local government web resources and services.